This demonstration page uses our WeatherBlox Daily Observations layout. Learn more.

Left ArrowRight Arrow

31.31129, -92.44514

Hourly Observations for January 28, 2020

Temp ( °F °C ) Dew Point ( °F °C ) Humidity (%) Winds ( mph kmh ) Pressure ( in mb ) Visibility ( mi km ) Precip ( " mm )
12:53 am 00:53 Clear 42 5.6 40 4.4 92 92 Calm 30.01 1016 3 5 0.00 0.00
12:55 am 00:55 Clear 42 5.6 40 4.4 92 92 Calm 30.00 1016 2 3 0.00 0.00
1:07 am 01:07 Clear 41 5 40 4.4 96 96 Calm 30.00 1016 3 5 0.00 0.00
1:12 am 01:12 Clear 41 5 39 3.9 93 93 Calm 30.00 1016 2 3 0.00 0.00
1:27 am 01:27 Clear 41 5 40 4.4 96 96 Calm 29.99 1016 3 5 0.00 0.00
1:44 am 01:44 Clear 41 5 39 3.9 93 93 Calm 29.99 1016 2 3 0.00 0.00
1:53 am 01:53 Clear 40 4.4 39 3.9 97 97 Calm 30.00 1016 1 1 0.00 0.00
2:01 am 02:01 Clear 41 5 39 3.9 93 93 SE 3 6 29.98 1015 2 3 0.00 0.00
2:12 am 02:12 Clear 39 3.9 39 3.9 100 100 ESE 5 7 29.97 1015 1 2 0.00 0.00
2:19 am 02:19 Clear 39 3.9 38 3.3 96 96 ESE 5 7 29.97 1015 3 5 0.00 0.00
2:53 am 02:53 Clear 40 4.4 39 3.9 97 97 Calm 29.99 1016 5 8 0.00 0.00
3:15 am 03:15 Clear 39 3.9 38 3.3 96 96 W 3 6 29.98 1015 3 4 0.00 0.00
3:20 am 03:20 Mostly Clear 39 3.9 38 3.3 96 96 WNW 3 6 29.99 1016 2 2 0.00 0.00
3:40 am 03:40 Mostly Cloudy 40 4.4 39 3.9 97 97 Calm 29.98 1015 0 0 0.00 0.00
3:51 am 03:51 Mostly Cloudy 39 4 37 3 93 93 Calm 29.98 1015 1 2 0.00 0.00
3:53 am 03:53 Mostly Cloudy 39 3.9 38 3.3 96 96 Calm 29.99 1016 2 3 0.00 0.00
4:00 am 04:00 Mostly Cloudy 39 3.9 38 3.3 96 96 Calm 29.98 1015 5 8 0.00 0.00
4:12 am 04:12 Mostly Cloudy 39 3.9 38 3.3 96 96 Calm 29.98 1015 2 2 0.00 0.00
4:24 am 04:24 Mostly Clear 39 3.9 38 3.3 96 96 Calm 29.98 1015 2 3 0.00 0.00
4:32 am 04:32 Partly Cloudy 38 3.3 37 2.8 97 97 Calm 29.98 1015 1 2 0.00 0.00
4:44 am 04:44 Partly Cloudy 39 3.9 38 3.3 96 96 Calm 29.98 1015 4 6 0.00 0.00
4:53 am 04:53 Mostly Cloudy 40 4.4 39 3.9 97 97 Calm 30.00 1016 5 8 0.00 0.00
5:37 am 05:37 Mostly Cloudy 40 4.4 38 3.3 93 93 ESE 3 6 29.99 1016 7 11 0.00 0.00
5:53 am 05:53 Mostly Cloudy 41 5 40 4.4 96 96 Calm 30.01 1016 6 10 0.00 0.00
6:32 am 06:32 Cloudy 43 6.1 42 5.6 97 97 Calm 30.01 1016 6 10 0.00 0.00
6:53 am 06:53 Cloudy 43 6.1 42 5.6 97 97 E 3 6 30.03 1017 1 1 0.00 0.00
7:03 am 07:03 Mostly Cloudy 44 6.7 43 6.1 96 96 E 6 9 30.01 1016 0 0 0.00 0.00
7:53 am 07:53 Mostly Cloudy 46 7.8 46 7.8 100 100 ESE 7 11 30.03 1017 0 0 0.00 0.00
8:01 am 08:01 Mostly Cloudy 47 8.3 46 7.8 97 97 ESE 8 13 30.02 1017 1 1 0.00 0.00
8:22 am 08:22 Cloudy 48 8.9 47 8.3 96 96 ESE 8 13 30.02 1017 1 2 0.00 0.00
8:39 am 08:39 Cloudy 48 8.9 48 8.9 100 100 SE 8 13 30.03 1017 3 4 0.00 0.00
8:53 am 08:53 Cloudy 49 9.4 48 8.9 97 97 SE 7 11 30.05 1018 3 4 0.00 0.00
9:49 am 09:49 Cloudy 48 9 46 8 94 94 W 5 7 30.07 1018 3 4 0.00 0.00
9:53 am 09:53 Cloudy 48 8.9 47 8.3 96 96 WNW 3 6 30.09 1019 3 4 0.00 0.00
9:55 am 09:55 Cloudy 48 8.9 47 8.3 96 96 WNW 3 6 30.08 1019 3 5 0.00 0.00
10:20 am 10:20 Cloudy 49 9.4 47 8.3 93 93 W 10 17 30.10 1019 3 5 0.00 0.00
10:53 am 10:53 Cloudy 50 10 48 8.9 93 93 WNW 6 9 30.10 1019 7 11 0.00 0.00
11:00 am 11:00 Cloudy 50 10 47 8.3 89 89 WNW 7 11 30.09 1019 8 13 0.00 0.00
11:09 am 11:09 Cloudy 50 10 47 8.3 89 89 WNW 7 11 30.09 1019 8 13 0.00 0.00
11:53 am 11:53 Cloudy with Light Rain 50 10 47 8.3 89 89 E 8 13 30.03 1017 8 13 0.00 0.00
12:00 pm 12:00 Cloudy with Light Rain 50 10 47 8.3 89 89 E 9 15 30.00 1016 8 13 0.00 0.00
12:53 pm 12:53 Cloudy with Light Rain 51 10.6 48 8.9 89 89 E 10 17 29.96 1015 5 8 0.01 0.25
1:28 pm 13:28 Cloudy with Light Rain 51 10.6 49 9.4 92 92 SSE 13 20 29.96 1015 5 8 0.00 0.00
1:35 pm 13:35 Cloudy 51 10.6 49 9.4 92 92 SSE 13 20 29.95 1014 5 8 0.00 0.00
1:53 pm 13:53 Cloudy with Light Rain 51 10.6 49 9.4 92 92 SE 14 22 29.95 1014 4 6 0.01 0.25
2:53 pm 14:53 Cloudy with Light Rain 52 11.1 49 9.4 89 89 SE 6 9 29.94 1014 3 5 0.01 0.25
3:00 pm 15:00 Cloudy 52 11.1 49 9.4 89 89 SSE 8 13 29.93 1014 4 6 0.00 0.00
3:08 pm 15:08 Cloudy with Light Rain 52 11.1 49 9.4 89 89 SE 9 15 29.92 1013 4 6 0.00 0.00
3:53 pm 15:53 Cloudy with Light Rain 52 11.1 49 9.4 89 89 ESE 7 11 29.91 1013 6 10 0.00 0.00
4:00 pm 16:00 Cloudy 52 11.1 49 9.4 89 89 ESE 8 13 29.89 1012 6 10 0.00 0.00
4:53 pm 16:53 Cloudy with Light Rain 52 11.1 49 9.4 89 89 ESE 8 13 29.91 1013 6 10 0.00 0.00
5:53 pm 17:53 Cloudy with Light Rain 52 11.1 50 10 93 93 ESE 13 20 29.87 1012 8 13 0.01 0.25
6:53 pm 18:53 Cloudy with Light Rain 52 11.1 50 10 93 93 SE 8 13 29.88 1012 8 13 0.01 0.25
7:53 pm 19:53 Cloudy 52 11.1 50 10 93 93 N 8 13 29.89 1012 7 11 0.00 0.00
8:53 pm 20:53 Cloudy with Light Rain 52 11.1 50 10 93 93 Calm 29.93 1014 5 8 0.03 0.76
9:53 pm 21:53 Cloudy with Light Rain 51 10.6 49 9.4 92 92 NE 7 11 29.91 1013 5 8 0.01 0.25
10:53 pm 22:53 Cloudy 51 10.6 49 9.4 92 92 E 8 13 29.89 1012 10 16 0.00 0.00
11:53 pm 23:53 Partly Cloudy 52 11.1 49 9.4 89 89 E 9 15 29.87 1012 10 16 0.00 0.00

Powered by AerisWeather